Content
SEND FEEDBACK

Daily
Averages
Monthly
Summary
Canada

QUEBEC CITY, QUEBEC


Home > North America > Canada > Quebec
Elevation: 239 feet     Latitude: 46 48N     Longitude: 071 23W

WEATHER
 
SELECT A DAY
Number of Records: 191,965;   Date Range: 6/30/96 - 7/20/14
 
SHARE

PRINT THIS DATA

[ ← Previous Day ]
WEATHER ALMANAC - APRIL 19, 2013
[ Next Day → ]
[ °C ]   °F
Weather ElementAverageHighLow
Temperature50.4 °F66.2 °F (4:00 pm)39.2 °F (1:00 am)
Dewpoint42.1 °F52 °F (2:00 pm) (7:00 pm)
Humidity79.3 %93 % (5:00 am)60 % (2:00 pm)
Barometer27.83 in29.81 in (1:00 am) (7:00 pm)
Wind Speed6.1 mph21.9 mph (11:00 pm)
Wind Gust23 mph (10:39 pm)
Weather ElementAverage
Visibility14.6 mi
Wind DirectionENE (81.5 °)

Weather ElementTotal
Precipitation---
Heating Degree Days12.3 (Base 65)
Growing Degree Days2.7 (Base 50)
Averaged from 33 records on April 19, 2013
WEATHER CONDITIONS BREAKOUT
WIND DIRECTION BREAKOUT
WEATHER BY HOUR - APRIL 19, 2013
[ °C ]   °F
Local TimeTemperatureDewpointHumidityBarometerVisibilityWind DirectionWind SpeedGust SpeedPrecipitationEventsConditions
1:00 AM39.2 °F33.8 °F81 %29.81 in15.0 miESE (120°)6.9 mphOvercast
2:00 AM40.0 °F35.0 °F76 %29.78 inESE (110°)1.2 mph
2:00 AM39.2 °F33.8 °F81 %29.80 in15.0 miNE (50°)4.6 mphRainLight Rain Showers
3:00 AM41.0 °F37.4 °F87 %29.78 in15.0 miNorth (10°)3.5 mphOvercast
4:00 AM41.0 °F37.4 °F87 %29.77 in15.0 miNNE (20°)5.8 mphRainLight Rain Showers
4:29 AM42.8 °F0.0 °F15.0 miNorth (10°)6.9 mphOvercast
5:00 AM42.0 °F40.0 °F88 %29.74 inNNE (20°)1.2 mph
5:00 AM41.0 °F39.2 °F93 %29.75 in15.0 miNNE (30°)3.5 mphOvercast
6:00 AM44.6 °F39.2 °F81 %29.76 in15.0 miNorth (10°)5.8 mphOvercast
7:00 AM44.6 °F41.0 °F87 %29.75 in15.0 miNorth (360°)4.6 mphOvercast
8:00 AM46.0 °F43.0 °F87 %29.73 inNNE (20°)3.5 mph
8:00 AM46.4 °F42.8 °F87 %29.75 in15.0 miNNE (20°)6.9 mphOvercast
9:00 AM48.2 °F44.6 °F87 %29.74 in15.0 miNE (40°)5.8 mphOvercast
10:00 AM51.8 °F46.4 °F82 %29.72 in15.0 miNE (40°)5.8 mphOvercast
11:00 AM54.0 °F48.0 °F75 %29.68 inENE (60°)3.5 mph
11:00 AM53.6 °F46.4 °F77 %29.70 in15.0 miENE (70°)4.6 mphOvercast
12:00 PM55.4 °F48.2 °F77 %29.68 in15.0 miNE (40°)3.5 mphOvercast
1:00 PM59.0 °F50.0 °F72 %29.63 in15.0 miNE (40°)6.9 mphOvercast
2:00 PM62.0 °F52.0 °F60 %29.57 inEast (80°)5.8 mph
2:00 PM60.8 °F51.8 °F72 %29.60 in15.0 miENE (70°)6.9 mphOvercast
3:00 PM64.4 °F51.8 °F64 %29.57 in15.0 miEast (80°)4.6 mphOvercast
4:00 PM66.2 °F51.8 °F60 %29.54 in15.0 miESE (110°)4.6 mphOvercast
5:00 PM62.0 °F52.0 °F61 %29.49 inEast (90°)6.9 mph
5:00 PM62.6 °F51.8 °F68 %29.52 in15.0 miEast (80°)5.8 mphOvercast
6:00 PM57.2 °F48.2 °F72 %29.48 in15.0 miNE (40°)5.8 mphOvercast
7:00 PM51.8 °F46.4 °F82 %29.44 in20.0 miEast (90°)9.2 mphOvercast
8:00 PM48.0 °F44.0 °F80 %29.42 inENE (70°)9.2 mph
8:00 PM48.2 °F44.6 °F87 %29.46 in15.0 miENE (70°)5.8 mphOvercast
9:00 PM46.4 °F42.8 °F87 %29.44 in15.0 miENE (60°)8.1 mphOvercast
10:00 PM46.4 °F42.8 °F87 %29.40 in15.0 miNE (40°)6.9 mphOvercast
10:39 PM46.4 °F0.0 °F8.0 miWest (270°)8.1 mph23.0 mphRainLight Rain Showers
11:00 PM53.0 °F51.0 °F92 %29.42 inSW (220°)5.8 mph
11:00 PM57.2 °F51.8 °F82 %29.44 in8.0 miWSW (250°)21.9 mphRainLight Rain Showers
Hourly data recorded from CYQB, located miles away from Quebec City, Quebec







STORIES FROM OUR PARTNERS